Theta_e
299 299 303 305 304 293 296 299 295 298 300 299 294 295 295 291 286 288 290 291 292 294 298 298 301 303 306 310 314 319 320 321 323 323 325 326 328 330 331 332 332 333 334 335 335 336 337 338 338 339 341 343 344 344 345 345 346 348 348 350 350 351 351
300 302 301 301 306 301 297 295 298 300 302 301 296 288 288 287 284 285 286 292 289 292 292 300 300 300 304 308 312 316 319 320 320 323 324 326 327 329 332 333 334 334 334 335 335 336 337 338 338 339 340 343 344 345 345 345 346 346 348 349 350 350 350
299 301 299 297 302 305 302 298 303 299 290 292 296 292 286 284 284 282 285 289 291 291 293 295 297 299 301 305 310 314 316 318 320 322 323 325 327 329 330 331 332 333 334 334 335 336 337 338 339 340 341 342 343 344 346 346 345 346 348 349 350 351 351
296 297 295 291 295 300 305 302 302 301 296 295 291 293 288 289 284 284 286 286 290 293 295 297 299 300 302 303 306 311 315 318 320 322 323 324 325 327 329 331 332 333 334 335 335 336 336 337 338 339 340 341 342 344 345 346 347 347 348 348 350 350 351
296 291 293 292 294 294 297 296 295 297 298 296 299 293 292 289 285 283 284 284 289 292 296 299 300 301 302 303 305 309 314 318 320 322 323 324 325 327 328 330 332 333 334 335 336 336 337 338 339 340 340 340 342 343 344 345 345 346 347 348 349 350 351
287 290 296 296 296 295 293 293 293 295 295 292 290 289 294 293 290 282 284 287 291 293 301 301 302 303 303 304 306 309 312 316 319 322 323 325 326 327 328 330 331 333 334 335 336 337 337 338 338 339 340 341 341 342 343 345 346 346 346 348 349 350 350
288 292 295 298 297 297 297 298 295 296 295 292 291 286 288 292 293 293 289 286 291 298 301 302 302 303 303 304 307 309 312 315 318 321 323 325 327 327 328 329 331 333 334 335 336 336 336 337 338 339 340 340 341 342 343 344 345 346 347 348 349 350 350
291 294 296 298 300 298 296 297 296 295 292 293 292 293 290 291 289 291 291 289 294 301 303 302 302 304 301 305 307 310 312 315 318 320 322 324 326 327 329 330 331 333 334 335 335 336 336 337 338 339 340 341 341 342 343 344 344 346 347 348 349 350 350
287 292 293 295 296 295 291 290 292 294 296 295 294 295 293 292 291 293 288 287 292 297 309 307 306 306 304 303 303 308 311 314 317 319 322 324 326 327 328 329 330 332 333 334 335 335 336 337 338 339 340 341 341 342 343 344 345 346 347 349 349 349 349
278 282 283 281 282 287 290 292 292 293 292 292 293 291 292 288 292 293 291 292 298 300 301 303 304 304 305 304 306 307 309 312 315 317 320 323 324 326 327 328 329 331 333 334 335 335 336 337 338 339 340 341 342 342 343 345 345 346 347 348 348 349 349
280 283 284 288 291 289 286 288 290 290 293 294 293 293 289 288 289 291 294 296 296 297 300 301 302 301 301 302 303 304 305 308 312 316 319 321 324 326 326 328 330 332 333 333 335 335 336 337 338 339 340 341 342 343 343 344 345 346 347 347 348 348 348
287 288 288 290 291 287 288 288 288 291 291 292 292 291 290 293 289 290 295 296 296 299 300 301 301 302 301 302 302 303 304 306 309 312 317 328 323 325 327 328 329 330 332 334 334 335 336 337 338 339 341 341 342 343 343 344 345 346 346 347 347 347 348
288 289 289 290 289 289 289 289 289 289 291 292 291 292 294 295 293 292 295 295 296 300 300 301 302 303 304 304 306 306 305 305 307 309 313 319 322 324 325 327 329 330 331 333 334 335 336 337 337 338 340 341 343 343 344 345 345 346 347 346 346 346 347
287 288 288 290 288 288 289 289 290 292 292 292 294 294 296 296 295 295 296 296 298 301 303 302 302 302 302 303 304 308 309 308 309 309 313 318 321 323 325 327 329 331 332 334 335 336 336 337 337 338 339 341 342 342 343 344 345 346 347 346 346 346 345
285 287 289 290 289 289 287 289 291 292 294 297 300 300 300 300 297 298 296 296 297 302 306 308 307 307 308 311 312 311 310 310 313 315 317 319 322 323 326 328 329 331 332 334 335 336 336 337 337 338 339 341 342 342 343 344 345 346 347 346 346 346 345
283 287 288 288 289 288 288 288 291 295 297 298 303 299 302 297 295 295 295 294 296 301 313 315 313 308 308 310 312 314 312 313 317 318 320 321 323 324 326 328 329 330 332 333 334 335 336 337 338 339 340 340 341 342 343 344 345 346 346 346 346 346 347
282 286 287 287 287 289 289 291 295 297 298 300 303 308 309 308 306 298 295 297 305 310 315 312 309 308 316 323 325 324 320 315 317 320 321 322 324 325 327 328 330 330 332 333 335 336 337 338 338 339 340 340 341 342 343 345 346 346 346 346 346 346 347
281 284 286 287 286 282 285 298 301 300 298 300 299 302 308 309 309 306 308 308 312 314 314 314 313 308 321 324 328 329 327 325 317 318 321 323 325 326 327 329 330 331 333 334 336 337 338 339 340 340 342 341 342 344 345 346 346 346 346 346 346 346 347
280 284 286 286 282 285 298 301 303 303 303 303 302 303 311 310 310 309 310 311 313 316 317 316 315 312 323 329 333 336 338 335 326 319 321 323 325 326 328 329 330 332 333 334 336 336 337 339 340 341 341 343 343 344 345 345 346 346 346 346 346 346 347
286 281 282 277 283 293 295 307 304 304 304 304 304 303 310 310 309 309 308 311 315 318 319 321 321 317 319 324 333 338 339 340 338 323 320 323 325 327 328 330 331 332 333 334 335 337 340 340 340 340 341 343 343 343 345 345 346 346 346 346 346 347 347
278 281 281 282 288 290 297 296 298 300 297 300 300 295 302 311 309 309 308 311 315 316 320 324 325 325 324 329 333 339 339 340 342 332 321 323 326 328 330 331 332 334 335 336 337 340 339 340 340 340 342 343 343 343 344 345 346 346 346 346 346 347 347
285 280 277 279 280 282 291 298 304 305 305 306 306 303 301 310 309 310 309 310 313 314 317 324 327 324 327 324 329 337 339 341 341 342 332 323 325 327 328 330 331 333 334 336 341 339 339 340 340 341 342 343 343 343 343 345 345 346 346 346 347 348 348
283 279 276 276 275 282 294 297 301 305 306 308 309 301 300 308 309 310 310 310 311 312 315 321 330 324 322 324 329 336 338 339 341 342 341 337 326 327 329 330 331 332 335 337 340 339 338 338 339 341 342 343 342 342 344 344 345 345 346 347 348 348 349
283 281 278 275 283 281 293 300 302 305 309 309 304 295 297 305 310 309 310 310 310 309 313 319 329 326 323 324 329 336 338 339 341 342 343 341 338 333 330 331 333 335 341 341 337 336 337 338 340 341 342 343 343 343 343 344 344 345 346 348 350 351 351
284 284 280 282 284 295 302 302 304 309 310 307 297 290 298 308 309 309 310 311 311 310 311 315 318 326 329 331 334 337 339 340 341 343 346 347 346 343 340 339 346 339 338 337 336 336 338 340 340 341 342 343 344 345 345 344 344 346 348 350 351 352 352
282 282 280 281 285 298 304 306 309 309 306 292 292 302 311 309 307 308 309 310 313 312 311 313 317 323 328 332 334 335 337 338 340 342 343 345 346 349 353 353 349 346 346 346 346 346 345 343 342 342 343 343 344 345 345 344 346 348 350 351 352 353 353
286 285 281 280 277 293 306 307 306 305 296 294 303 306 309 310 308 307 308 310 312 313 310 312 314 319 323 326 329 333 335 336 338 339 340 341 342 343 345 346 350 348 346 346 347 348 349 347 345 344 343 344 345 346 344 346 349 351 351 352 352 353 354
283 282 280 282 295 299 307 306 296 302 304 307 307 307 305 307 307 306 307 308 312 314 311 309 311 315 318 323 326 328 330 333 335 338 339 341 341 342 344 345 346 347 345 345 346 348 349 351 350 349 347 347 348 347 346 349 348 352 353 353 353 353 353
288 286 290 297 303 306 307 308 305 305 306 308 309 309 307 305 306 309 308 308 312 313 311 309 310 312 315 318 322 325 326 329 332 334 337 338 339 340 340 341 344 343 342 343 344 345 347 348 350 352 353 352 352 350 349 352 352 350 352 353 353 352 353
295 296 296 300 301 305 305 307 306 303 305 306 309 307 305 307 308 309 308 311 312 312 311 308 308 309 312 316 318 322 325 327 330 333 334 336 338 340 340 340 341 340 339 340 340 341 343 346 347 349 349 351 350 348 350 355 354 350 349 351 352 352 353
288 286 296 295 297 301 304 304 305 306 307 307 308 308 307 308 310 310 312 313 313 312 311 309 307 306 309 312 316 319 322 325 328 330 331 333 336 336 337 340 341 338 338 337 338 339 339 341 344 345 345 346 347 348 349 351 354 352 348 348 350 351 352
288 289 294 295 298 305 307 307 307 306 306 307 307 308 308 310 312 312 312 314 313 313 308 309 307 306 308 309 312 316 320 322 325 327 330 331 334 336 337 338 340 337 336 336 337 338 337 338 341 343 344 344 345 346 348 350 351 351 349 347 347 348 349
291 294 295 296 297 302 304 304 305 310 307 307 306 306 308 309 309 309 310 311 310 313 310 311 309 306 307 308 311 315 318 321 323 326 329 331 333 336 336 336 338 336 336 337 336 337 337 337 339 340 341 342 344 345 347 348 349 351 350 350 348 347 348
286 288 291 294 289 289 295 296 299 305 308 307 306 306 306 306 307 308 307 308 308 312 314 312 310 305 305 307 309 313 318 320 322 325 328 330 331 334 336 337 335 336 339 337 337 337 336 337 338 339 339 340 342 345 345 346 349 354 353 350 348 346 347
286 292 294 295 295 294 295 296 301 302 301 306 306 305 304 305 308 309 308 306 306 308 311 312 312 308 306 306 308 310 316 319 322 325 328 329 330 333 335 335 335 336 337 339 338 337 336 337 338 339 339 340 341 342 343 344 346 349 351 349 347 346 348
294 296 295 296 295 293 296 299 299 299 301 302 305 307 306 307 308 309 308 308 306 306 309 309 313 312 309 308 308 309 313 318 321 325 328 330 330 333 334 334 335 335 336 335 333 334 334 336 336 338 339 339 340 342 342 343 343 344 349 350 348 347 349
293 298 298 298 297 297 298 299 299 300 301 303 302 306 308 306 308 309 308 306 307 306 307 307 308 313 312 311 309 309 312 318 323 327 329 331 331 332 332 334 334 334 333 331 333 334 335 336 336 337 338 338 339 340 341 342 343 343 343 344 346 345 348
Wind_Speed
3 4 6 6 11 9 5 8 12 11 6 5 3 3 2 1 1 12 2 5 4 6 5 4 3 7 12 12 13 14 15 12 10 13 15 17 17 17 17 18 16 17 15 16 17 18 17 17 18 19 19 18 19 17 17 18 18 16 17 17 16 15 14
1 10 10 7 12 7 5 8 10 4 2 4 5 7 0 5 8 7 1 12 2 3 11 1 3 5 13 12 13 15 16 11 11 14 15 16 18 19 22 22 20 18 17 17 16 16 18 19 20 19 19 18 17 17 18 19 17 18 17 17 16 15 15
7 12 7 4 5 8 10 7 8 11 5 10 8 4 9 7 8 3 4 1 6 9 7 1 6 10 12 13 14 13 13 9 12 14 15 16 17 17 16 17 15 15 16 18 19 20 20 19 19 19 18 18 16 16 17 19 20 19 18 15 15 13 14
10 8 1 6 6 5 5 7 11 6 5 6 6 10 2 2 6 1 10 1 10 6 6 9 11 12 14 14 12 13 15 15 14 13 14 15 14 16 17 17 17 18 20 21 22 21 20 20 19 18 18 17 19 18 17 17 17 16 16 17 16 15 14
5 3 1 4 1 5 7 4 3 3 3 2 6 1 5 5 4 4 2 6 2 7 7 11 13 13 14 15 16 15 15 15 15 14 14 14 15 16 16 17 18 20 20 20 20 19 18 16 15 15 16 19 19 17 18 18 19 18 18 17 16 14 13
4 8 4 2 4 4 4 4 4 6 7 3 7 9 0 7 5 4 2 12 1 5 3 10 13 14 14 14 17 17 16 17 16 15 13 14 14 16 17 18 19 18 18 18 17 16 14 15 16 19 18 17 18 18 18 18 17 17 18 17 15 15 13
9 16 20 13 10 8 7 3 5 4 2 4 5 8 6 1 6 2 4 4 10 7 6 9 9 10 12 13 13 14 15 17 16 16 15 15 17 17 18 18 17 17 17 17 18 19 20 21 20 20 18 18 18 18 18 17 18 18 18 17 16 14 14
10 14 13 5 3 3 1 0 5 8 5 6 5 4 6 7 2 5 7 11 5 3 5 9 8 3 4 4 6 13 11 10 12 13 12 13 12 14 15 15 14 15 14 13 13 15 16 15 15 18 18 17 17 17 18 17 19 19 18 16 15 15 14
6 8 4 2 5 7 5 6 7 5 7 7 8 4 1 4 9 10 7 15 7 4 2 3 3 3 4 5 7 7 8 7 10 13 13 13 14 15 15 15 15 14 12 14 16 17 17 18 17 17 17 18 18 18 17 17 18 18 17 15 15 15 15
4 9 8 1 8 10 12 6 7 8 10 11 10 3 1 8 5 7 9 11 2 2 2 2 3 1 4 7 2 3 6 7 8 8 10 11 12 13 15 15 13 15 17 17 17 17 16 17 17 17 17 18 17 17 18 17 17 16 16 15 16 16 15
7 4 2 6 5 7 7 17 17 16 9 4 4 2 3 8 2 7 8 8 3 7 5 5 6 4 6 7 5 6 7 8 9 8 10 12 13 14 16 15 15 14 13 17 18 19 18 18 18 17 18 18 17 16 17 17 16 16 16 15 15 16 16
8 7 7 10 9 12 14 14 19 16 12 7 5 5 8 2 1 14 3 4 7 15 7 8 8 8 8 9 7 8 8 10 12 13 13 14 14 14 13 12 14 17 18 18 17 18 18 17 17 16 16 17 17 17 18 16 16 15 14 15 15 16 15
7 8 7 8 9 10 12 14 16 18 17 11 10 10 11 9 8 9 0 5 9 16 7 9 10 10 11 13 15 12 9 8 8 9 10 13 16 16 15 15 16 18 17 16 17 17 17 17 17 17 16 15 14 14 15 15 16 17 16 15 16 15 15
5 6 7 7 10 11 10 12 15 16 15 17 14 15 14 14 13 7 14 10 15 15 9 4 5 5 7 8 5 6 6 10 10 11 13 16 17 17 17 16 17 17 18 18 18 17 16 17 18 17 16 16 16 17 16 16 16 15 15 16 16 15 16
6 5 7 7 6 6 12 15 14 13 12 14 14 14 15 11 9 13 17 15 16 5 5 6 7 6 5 5 8 10 9 9 9 11 14 15 16 16 16 16 17 17 17 17 17 17 17 18 19 18 18 18 17 16 15 16 16 15 16 15 15 16 16
6 1 1 4 7 11 12 14 11 7 7 10 9 3 5 4 6 8 10 9 13 5 15 14 10 7 6 5 7 8 8 9 8 10 12 13 15 16 16 17 16 16 16 16 17 18 19 19 19 17 15 14 15 17 16 16 16 14 15 15 15 15 15
7 2 3 8 12 9 5 5 2 4 4 5 10 3 5 7 4 4 10 12 2 10 11 10 10 9 4 7 7 8 9 7 8 9 12 14 15 16 17 17 17 17 18 18 20 20 19 19 18 19 18 16 17 17 16 15 13 14 16 16 15 14 14
4 3 6 7 2 3 5 3 5 6 4 5 10 8 9 9 5 4 4 7 11 11 12 10 11 10 3 1 3 2 3 8 8 8 7 10 12 13 15 17 19 18 16 15 18 20 21 21 22 19 17 18 14 13 13 12 14 14 14 14 14 15 14
4 3 5 2 4 7 1 2 3 10 7 5 13 11 5 12 12 14 11 11 13 13 10 10 11 10 7 3 5 10 9 6 6 8 7 6 8 11 12 11 12 13 16 16 15 14 14 15 12 11 10 10 11 12 13 14 14 14 14 14 13 13 14
3 4 1 1 6 1 8 3 6 9 4 5 12 6 6 16 15 14 13 14 14 14 13 11 8 8 10 7 2 11 12 10 9 7 7 7 7 9 11 14 14 14 14 14 16 17 13 13 13 14 14 14 15 15 14 15 14 14 14 14 14 13 14
4 4 4 8 8 12 4 4 5 9 6 9 7 5 5 13 15 16 15 16 16 18 15 12 10 8 5 3 7 13 15 15 12 8 8 8 8 7 6 8 11 11 13 14 13 10 11 14 14 14 13 14 13 13 13 13 14 14 14 14 15 15 14
5 2 4 5 2 4 1 2 2 3 5 6 8 3 5 12 18 18 17 16 17 19 17 17 12 5 3 8 9 14 16 15 14 10 3 6 8 8 8 7 8 7 7 8 9 12 12 11 11 11 13 13 13 14 14 13 14 14 15 15 14 14 14
3 1 2 3 3 3 1 4 6 10 8 8 1 3 3 8 16 19 17 17 18 17 16 17 9 5 5 5 9 12 16 14 13 10 7 2 5 9 10 11 10 10 9 10 10 10 10 11 10 11 12 14 14 13 13 14 14 15 15 14 14 15 15
5 2 3 4 3 5 4 9 11 12 10 4 3 3 3 13 16 17 17 16 17 18 18 15 11 12 8 8 9 13 14 12 11 10 8 5 6 6 8 9 12 12 12 12 12 12 13 12 11 13 13 13 13 13 14 13 14 15 15 15 15 14 14
6 6 4 4 5 4 6 11 14 12 8 3 2 3 7 11 14 15 14 14 15 15 15 14 11 10 8 7 9 12 13 13 14 12 9 8 8 8 8 9 10 11 12 14 15 15 13 13 13 14 13 13 12 12 12 12 15 16 14 12 12 12 12
6 4 4 7 6 1 8 12 10 10 2 4 5 5 6 8 11 13 13 13 14 15 14 12 11 10 12 13 12 14 14 12 12 12 12 11 13 12 11 10 9 10 9 9 9 8 8 12 13 13 14 15 13 12 12 15 16 12 8 9 11 11 12
3 4 4 3 4 3 9 13 5 11 7 2 3 7 6 7 9 11 12 11 13 15 15 17 15 14 16 15 14 14 14 14 12 13 13 13 12 12 12 12 9 11 11 11 9 8 6 7 9 11 13 13 11 11 13 10 6 8 10 10 10 11 11
3 5 4 2 2 6 9 7 5 5 5 1 3 6 7 8 8 10 10 12 12 13 14 15 17 14 13 14 16 16 17 16 15 14 14 14 13 13 13 12 10 12 13 11 11 9 8 7 7 8 11 10 9 9 8 5 6 6 8 8 8 9 10
1 2 3 2 2 3 6 7 8 6 5 5 5 5 4 7 9 9 9 12 12 13 14 15 14 14 14 14 14 13 14 14 14 13 13 12 12 11 11 12 10 10 12 12 12 12 10 10 8 8 9 11 10 9 3 4 7 7 8 9 9 10 10
7 9 9 0 3 2 6 7 6 5 4 4 4 6 7 6 7 7 9 11 11 12 12 12 13 13 15 15 15 16 15 14 15 16 14 14 13 12 12 12 11 9 9 10 12 13 11 10 10 9 8 10 12 6 4 4 5 7 8 9 10 11 11
5 1 3 5 5 2 4 5 5 4 3 5 5 5 5 6 8 9 9 9 10 11 11 11 12 15 18 16 15 14 13 15 17 16 14 12 11 11 11 10 9 10 9 10 11 11 11 7 8 8 9 8 8 6 6 5 5 7 7 8 8 8 10
4 6 5 8 8 2 4 2 2 2 3 3 4 4 6 7 6 8 11 11 10 10 12 14 13 12 11 13 14 13 12 13 13 13 13 13 12 11 9 9 9 9 9 8 8 9 8 6 6 7 7 6 4 5 5 5 5 6 7 8 8 8 8
8 11 9 6 7 5 6 5 6 2 2 1 2 3 5 8 8 10 12 12 12 11 12 14 15 14 11 10 11 12 12 13 12 12 12 12 11 9 10 8 8 8 6 7 6 7 6 5 5 7 6 5 5 6 5 4 5 7 6 6 6 7 7
6 3 2 8 5 3 5 11 11 7 5 2 4 3 6 8 8 7 10 12 13 11 11 11 14 18 16 12 9 11 11 12 13 13 13 12 11 11 9 7 7 7 7 6 6 6 5 4 5 6 6 6 5 5 5 5 5 6 5 5 5 5 6
10 9 10 10 8 10 10 8 4 5 11 9 4 3 3 6 6 6 7 9 12 12 12 10 10 16 18 19 15 11 8 11 13 12 12 12 11 9 8 9 9 7 7 6 6 6 5 3 4 5 6 6 6 5 5 5 5 5 4 4 4 4 5
17 16 15 10 7 9 8 3 7 12 9 9 9 3 2 3 5 5 5 5 8 9 9 11 7 9 15 18 15 16 16 11 10 12 12 12 9 8 7 7 7 8 8 7 6 5 5 4 4 5 6 6 6 5 4 4 3 4 3 4 4 4 5
13 11 12 12 10 10 9 9 10 10 11 9 8 7 3 2 5 3 4 5 7 7 8 9 9 7 12 16 16 14 14 15 12 11 12 11 12 9 7 8 8 7 6 4 4 5 5 5 6 6 7 6 5 4 3 3 4 5 3 3 4 4 4
Wind_Direction
329 335 333 207 155 207 189 155 204 207 109 171 250 281 239 124 39 246 96 286 280 288 321 240 247 227 226 224 220 222 228 216 181 189 194 194 196 192 193 200 202 199 192 192 193 191 190 190 188 189 188 187 187 184 186 188 190 188 189 190 191 193 194
3 5 319 276 199 136 131 189 207 118 117 121 182 226 342 209 227 257 169 227 299 165 244 233 177 212 225 219 225 224 227 211 183 200 198 195 195 193 197 198 197 192 191 191 193 194 193 192 191 189 187 186 186 186 185 187 188 189 191 190 191 192 192
305 336 341 301 262 173 183 204 142 173 170 201 204 203 233 219 234 289 282 262 238 194 235 174 181 199 224 225 222 226 232 218 205 207 204 201 198 195 197 198 192 187 189 190 192 195 196 194 191 189 186 183 185 187 187 187 189 191 189 190 193 194 192
313 305 108 218 209 282 239 108 181 169 137 218 166 203 175 132 261 343 274 80 243 207 203 186 204 202 208 208 218 225 223 221 212 208 204 201 194 195 197 194 192 193 193 192 192 192 191 190 189 188 185 185 186 186 185 189 190 188 187 189 190 193 194
340 303 204 219 235 210 223 208 186 185 215 243 193 224 199 201 197 213 263 278 267 247 210 182 197 205 206 195 204 213 219 225 221 212 202 198 195 196 196 193 195 196 195 193 192 190 189 185 184 183 185 188 188 184 186 187 187 187 189 191 189 194 189
313 264 287 38 16 51 351 292 237 186 181 175 169 243 193 196 220 227 204 257 245 273 193 195 197 205 199 201 195 203 213 218 219 218 207 199 197 199 197 196 197 197 194 191 189 185 179 178 181 185 187 186 186 188 188 186 186 187 188 188 191 191 190
276 276 281 279 281 279 265 210 275 310 237 134 176 220 250 195 230 140 180 304 258 239 208 210 215 209 206 201 194 203 208 212 215 215 208 201 198 197 198 197 196 194 191 188 183 180 181 183 184 183 182 185 187 188 185 186 186 188 188 188 188 186 187
262 264 259 281 333 184 183 323 23 10 344 344 303 272 188 197 239 199 242 251 258 224 204 219 229 267 260 239 201 200 203 208 212 216 212 205 206 208 204 198 195 192 188 178 174 180 183 183 181 182 184 184 185 186 187 184 188 187 186 187 185 185 186
339 313 33 115 1 46 63 321 317 303 298 326 306 271 42 239 202 192 169 243 251 270 324 277 296 289 256 212 219 217 219 213 212 213 213 208 207 206 201 195 191 181 170 173 182 183 183 184 184 181 181 184 185 186 185 186 189 186 186 184 182 184 186
174 216 218 41 332 333 313 284 303 316 337 334 356 304 261 227 241 185 209 244 214 234 266 213 207 293 284 281 261 251 226 225 214 216 219 217 212 210 202 196 182 177 180 183 182 182 183 183 181 181 183 183 183 184 186 185 184 184 185 182 183 183 186
220 262 281 257 247 300 306 304 307 299 306 279 250 258 294 244 216 218 236 239 283 289 261 281 267 214 233 246 255 246 238 237 234 221 213 209 207 208 202 192 186 183 180 183 184 182 182 183 181 181 181 181 182 182 184 185 184 182 181 180 181 184 186
234 259 275 283 284 285 286 292 291 294 286 286 263 225 237 26 87 257 217 249 246 253 239 237 240 248 255 259 239 225 233 230 220 218 213 209 208 209 200 189 181 180 185 185 182 182 182 182 180 180 181 181 181 180 183 183 181 180 181 181 182 184 185
231 246 260 275 289 267 269 272 274 281 285 283 257 250 239 263 245 248 174 207 250 260 238 231 229 225 230 235 242 236 222 222 232 235 221 208 206 203 193 189 184 185 183 181 182 181 182 178 177 178 179 180 179 181 182 181 180 183 179 179 182 184 186
256 256 260 273 277 281 270 261 264 266 277 279 268 260 251 235 249 299 294 264 248 256 268 287 262 239 244 258 295 308 267 232 220 215 211 207 204 194 188 186 185 185 184 180 180 179 176 177 178 177 178 179 180 180 181 180 182 181 174 181 182 184 188
273 246 267 263 259 278 288 276 270 274 271 274 269 249 249 241 254 250 256 266 269 267 51 330 301 297 265 279 276 270 265 256 226 206 203 202 194 187 186 183 184 185 183 180 176 175 178 179 179 179 181 182 180 178 178 179 182 179 177 179 182 184 190
296 268 228 273 282 284 263 268 277 286 321 337 337 360 323 213 221 228 236 257 258 323 336 331 313 341 3 347 328 320 304 279 241 205 198 191 189 185 185 184 183 181 179 175 175 179 181 181 180 181 179 175 174 181 179 180 179 173 177 179 182 186 189
264 251 355 313 316 311 273 205 207 322 333 321 324 282 4 9 286 243 216 237 14 314 315 328 313 334 341 13 2 336 324 294 255 224 200 196 191 187 182 181 182 180 179 179 181 183 181 181 181 183 176 174 182 180 177 177 168 173 179 180 182 186 185
265 343 326 320 335 215 227 136 111 39 331 342 349 325 5 349 14 282 278 280 298 315 320 314 295 302 315 53 319 265 272 300 288 261 236 210 198 190 186 183 180 180 180 182 184 183 182 183 184 178 175 179 175 168 164 160 171 173 176 180 183 186 185
277 310 354 298 209 225 316 244 56 13 343 14 334 299 350 10 359 354 345 332 335 322 305 284 275 260 251 258 344 357 350 327 283 252 229 220 198 190 186 183 181 180 181 181 181 180 183 179 168 158 160 148 148 158 164 168 171 172 178 180 183 185 188
297 7 131 197 214 264 302 173 48 16 32 20 347 333 20 21 9 356 346 335 327 324 319 314 289 270 275 278 313 4 349 346 321 261 227 199 186 191 187 180 182 180 180 177 177 183 172 161 165 167 164 161 162 168 166 168 172 175 177 181 185 184 187
196 204 177 235 320 324 0 28 30 356 346 338 352 319 313 19 4 2 344 336 339 335 328 315 299 291 281 336 341 7 353 343 330 274 220 180 184 176 192 193 191 186 180 176 171 150 155 166 165 167 161 162 161 158 165 170 171 175 179 184 188 187 188
213 260 311 332 0 222 218 168 212 317 306 297 283 258 273 17 0 356 348 343 343 337 331 331 320 319 30 9 343 351 344 345 333 331 293 177 157 157 148 125 112 112 112 111 133 154 158 163 162 156 158 157 159 164 168 168 172 180 183 189 188 185 189
39 32 162 221 208 238 130 292 340 329 315 307 303 171 221 21 353 354 348 348 347 346 339 328 342 46 50 8 350 340 340 339 342 337 346 17 140 147 147 141 132 125 128 130 128 129 137 144 151 153 157 158 161 167 170 174 179 182 187 189 187 188 191
220 224 239 263 223 253 291 339 338 323 309 352 143 189 37 1 347 347 347 354 350 342 343 338 23 39 50 13 350 339 341 343 343 354 359 31 73 104 123 130 134 131 128 126 134 145 157 159 149 153 155 162 168 169 176 174 180 189 192 192 188 190 189
228 224 262 274 302 290 337 331 318 320 300 171 123 64 1 342 342 343 340 352 356 348 345 353 14 5 9 0 345 345 351 0 8 7 16 39 59 79 103 123 129 132 143 149 159 164 163 157 156 156 158 160 170 173 172 178 190 196 195 186 184 191 188
220 208 227 238 244 288 341 329 325 308 9 49 84 1 354 335 344 336 339 339 352 354 354 346 342 340 356 6 3 4 2 2 10 19 24 38 55 59 67 73 93 105 98 100 104 111 143 158 158 160 161 169 171 170 174 189 197 192 176 179 186 189 189
228 226 236 292 303 266 349 325 330 7 87 164 330 313 325 347 337 338 335 347 346 356 353 352 345 351 1 6 6 4 359 360 6 15 24 33 41 51 60 66 64 92 94 89 85 93 108 139 155 159 158 160 164 170 187 189 160 164 180 183 184 187 191
232 181 195 216 300 317 337 359 58 51 60 64 10 346 324 350 352 341 338 345 348 356 3 351 345 344 354 358 4 7 3 0 358 8 21 30 37 42 53 64 67 80 87 87 86 81 83 97 121 136 146 147 155 161 162 134 156 155 168 176 177 185 193
313 311 338 337 318 18 30 53 70 63 43 24 27 353 341 347 343 334 339 342 347 4 0 351 347 344 353 357 360 5 359 359 3 5 11 19 26 30 36 43 47 60 76 84 85 77 73 81 86 101 118 121 120 120 149 157 149 160 160 164 172 187 193
282 271 249 334 39 40 78 72 87 87 63 28 29 21 343 351 330 332 328 334 343 354 0 351 347 354 350 357 358 0 359 2 6 9 12 14 17 23 32 34 32 46 61 71 74 75 65 65 78 82 89 105 107 126 150 142 151 152 165 170 180 184 188
358 222 149 8 1 336 121 129 129 121 113 63 27 9 336 327 330 328 324 328 341 344 351 355 353 355 358 358 354 354 355 0 5 6 7 9 17 19 22 20 27 32 41 57 62 69 70 56 72 76 80 81 106 131 131 138 142 147 154 170 179 185 189
232 257 325 327 308 250 149 183 162 85 46 59 45 13 333 317 333 332 327 331 338 343 350 352 7 351 347 354 357 348 352 351 355 357 359 3 6 14 22 20 27 34 37 42 52 60 67 61 74 85 84 89 112 114 110 115 124 133 140 165 174 184 190
280 282 290 293 260 201 134 74 34 353 128 23 41 3 339 333 358 345 338 342 337 338 349 353 3 344 337 358 357 349 341 351 351 348 351 357 2 8 16 10 25 35 29 39 42 52 54 45 69 78 82 79 64 59 56 71 117 119 136 155 166 174 176
285 265 23 42 19 318 299 343 337 353 352 24 350 350 17 351 356 352 338 334 337 336 342 356 4 343 330 343 359 356 347 344 346 345 347 347 356 1 6 14 25 27 31 38 33 33 29 29 58 74 75 70 57 47 46 35 48 83 115 139 149 171 174
286 299 310 319 309 281 271 285 302 349 346 324 306 359 6 345 344 344 337 335 330 337 341 350 16 341 330 330 341 350 6 346 339 340 345 344 341 351 357 11 11 19 23 26 32 26 9 20 57 68 70 65 63 56 51 45 58 78 99 107 135 153 168
274 278 283 281 264 263 279 288 312 305 308 320 316 289 335 325 330 330 329 318 311 317 329 339 4 339 327 327 337 341 339 352 348 339 341 337 328 329 356 10 9 11 12 13 10 360 352 6 28 51 63 53 58 53 60 64 81 98 118 131 147 173 181
279 279 275 269 258 258 269 275 271 266 269 260 262 268 260 316 284 273 280 301 300 311 324 329 330 331 328 325 330 337 332 332 340 343 342 334 334 339 347 2 6 357 351 338 339 3 11 12 19 29 45 32 32 41 59 86 92 83 76 109 135 142 154